Weather in Shibkovo

Russia / Novosibirsk Oblast     54°29′34″N   83°18′26″E
temp.,
°C
wind,
m/s
gust,
m/s
humid.,
%
clouds,
%
prec.,
mm/h
press.,
hPa
HPBL,
m
26 february, fri
fri2601:00−22sw51193100 0.1 1023932
04:00−23sw61291100 0.1 1024889
07:00−24sw71390100 0.1 1028611
10:00−25sw81390100 0.0 1029655
13:00−23sw81390100 0.1 1032853
16:00−21sw81290100 0.1 10331050
19:00−23sw61191100 0.3 1035822
22:00−24sw61191100 0.1 1037704
27 february, sat
sat2701:00−25sw51193100 0.1 1037569
04:00−25sw4994100 0.1 1037540
07:00−25sw4996100 0.2 1038430
10:00−25sw489399 0.1 1038463
13:00−23sw4792100 0.1 1039530
16:00−21sw4690100 0.1 1038596
19:00−25sw3495100 0.1 103945
22:00−28ssw349416 0.0 103932
28 february, sun
sun2801:00−29ssw339515 0.0 104029
04:00−29s339621 0.0 103931
07:00−29sse349735 0.0 103954
10:00−27sse479435 0.0 1038173
13:00−21sse589238 0.0 1036295
16:00−16sse51090100 0.0 1032492
19:00−14sse51093100 0.1 1029407
22:00−12sse61193100 0.6 1025501
1 march, mon
mon101:00−11sse61291100 0.9 1021527
04:00−9sse71393100 0.4 1017684
07:00−7s71394100 2.0 1013815
10:00−6s71394100 2.1 1011807
13:00−1ssw101694100 3.1 1010833
16:000sw91598100 2.3 1010976
19:000sw61297100 2.8 1010736
22:000sw71297100 1.1 1009689
2 march, tue
tue201:000ssw81495100 2.3 1008850
04:00−2wsw81490100 1.2 1008709
07:00−4wsw7139099 1.3 1012619
10:00−9wsw61192100 0.1 1014577
13:00−10wsw5991100 0.3 1015549
16:00−9wsw4790100 0.1 1016576
19:00−12w2396100 0.2 101660
22:00−14wnw2296100 0.1 101629